Theta_e
327 328 328 331 334 335 337 335 336 336 336 336 336 336 336 334 333 331 328 327 326 326
329 328 332 334 334 335 334 335 334 335 335 336 339 338 336 332 331 331 326 325 323 321
331 331 334 336 335 335 335 336 334 334 334 338 338 336 334 330 332 330 324 324 322 322
335 335 335 336 335 335 334 334 334 334 336 336 334 331 330 331 329 326 324 323 323 323
339 336 334 334 336 336 333 334 336 336 336 336 334 332 330 326 326 324 323 323 323 324
338 337 335 337 338 336 336 335 337 336 334 334 333 331 328 326 325 325 324 324 324 323
337 337 337 339 339 337 337 336 334 334 333 333 330 327 327 325 324 324 325 326 326 326
335 336 335 334 333 333 332 331 328 327 326 327 327 327 328 327 325 323 323 325 326 327
333 332 329 328 326 326 323 326 324 323 323 322 320 304 313 321 323 323 322 321 322 322
330 329 327 326 324 322 322 323 323 323 321 318 314 303 305 312 323 321 321 321 322 325
328 326 323 324 322 323 326 326 324 321 318 315 314 304 306 312 323 322 321 322 325 324
324 322 325 326 325 326 327 324 320 317 316 317 317 303 306 316 320 318 317 322 324 324
325 326 325 326 325 324 321 323 322 319 317 311 316 302 303 314 320 319 317 316 316 309
326 325 326 325 324 321 323 322 319 317 316 317 317 311 301 307 318 319 318 316 316 313
Wind_Speed
11 8 7 7 5 5 6 6 7 7 6 6 6 6 6 4 4 6 4 7 4 3
9 8 8 8 6 5 6 5 6 7 8 7 7 6 7 5 5 5 5 5 5 3
10 8 7 8 9 9 7 8 8 6 7 7 6 7 7 5 5 6 4 3 6 4
7 8 8 8 9 9 8 8 7 6 6 7 7 7 7 5 6 6 6 5 6 6
10 9 9 8 9 9 7 7 8 7 7 8 8 7 6 6 6 7 7 6 6 6
11 11 9 10 10 10 9 8 8 9 9 9 9 7 6 7 7 6 7 7 6 6
10 11 10 10 11 11 10 10 9 8 9 9 7 6 6 6 6 6 6 6 6 6
10 11 11 12 11 10 10 9 7 7 6 6 6 3 6 6 6 6 5 5 5 5
12 12 12 11 10 10 9 9 9 7 7 8 5 4 7 7 5 6 6 5 3 3
13 12 11 10 10 8 8 8 8 8 7 6 5 4 6 7 5 5 5 6 5 4
13 11 10 8 8 8 8 10 8 7 7 6 3 3 7 8 5 5 3 6 6 7
11 9 10 11 9 8 10 9 6 5 7 8 4 4 8 8 6 5 5 5 4 7
11 10 10 11 10 5 7 8 7 7 5 7 6 6 7 6 4 6 5 5 6 8
12 11 11 10 8 7 9 9 8 8 5 6 5 4 5 6 4 5 5 4 3 3
Wind_Direction
200 199 193 172 166 175 179 161 149 145 142 158 165 150 154 141 144 150 168 171 134 145
189 175 179 158 150 158 144 139 134 142 158 165 146 140 142 135 152 142 141 159 161 146
174 161 142 142 151 159 145 137 153 173 169 157 136 144 136 143 148 141 155 151 154 173
140 134 140 151 152 154 140 142 152 161 143 128 134 136 140 152 147 155 157 161 169 173
135 137 139 144 142 134 132 136 147 141 133 143 139 144 148 155 153 160 173 175 171 183
140 145 150 148 139 138 138 139 133 136 138 138 149 154 159 159 166 175 177 180 184 187
141 145 140 139 141 136 137 133 133 138 140 152 159 150 162 163 166 174 186 191 195 183
126 122 122 119 119 121 126 130 120 107 101 115 118 131 165 171 176 182 186 197 191 196
113 112 110 111 114 116 106 111 109 104 113 111 102 93 133 152 155 167 167 169 130 144
122 122 121 120 112 107 115 110 103 103 103 99 108 114 132 156 144 143 170 162 146 150
129 132 120 114 111 109 123 120 118 108 111 113 106 106 120 117 107 104 135 155 158 111
140 120 115 120 122 118 115 107 108 126 117 117 106 95 97 96 91 87 72 87 109 129
122 119 127 132 127 125 108 116 113 101 98 113 106 81 100 103 117 102 92 57 80 94
136 133 141 132 126 112 114 113 111 107 97 102 97 92 109 124 105 119 109 106 96 86